#timestamp,LO_Frequency,Hit,StdDev 
1711598415.5,286046998.6,N
1711598435.3,286047000.9,N
1711598455.2,286047000.1,N
1711598475.0,286047001.1,N
1711598475.9,286047001.1,N
1711598495.7,286046998.5,N
1711598515.6,286047000.6,N
1711598535.4,286046998.1,N
1711598555.3,286046999.1,N
1711598575.1,286046998.6,N
1711598576.0,286046998.6,N
1711598595.8,286047000.7,N
1711598615.7,286047000.7,N
1711598635.5,286047001.2,N
1711598655.4,286047000.0,N
1711598675.2,286047000.4,N
1711598695.0,286047000.2,N
1711598695.9,286047000.2,N
1711598715.8,286047002.6,N
1711598735.6,286047000.3,N
1711598755.4,286047002.2,N
1711598775.3,286047001.4,N
1711598795.1,286047002.1,N
1711598815.9,286047002.4,N
1711598835.7,286047000.1,N
1711598855.5,286047002.4,N
1711598875.4,286046999.8,N
1711598895.2,286047002.4,N
1711598915.0,286047000.5,N
1711598915.9,286047000.5,N
1711598935.8,286047000.0,N
1711598955.6,286047000.2,N
1711598975.5,286047001.5,N
1711598995.3,286047002.1,N
1711599015.1,286047002.5,N
1711599035.9,286047002.6,N
1711599055.7,286047002.7,N
1711599075.5,286047002.1,N
1711599095.4,286047000.7,N
1711599115.2,286047000.7,N
1711599135.1,286047000.4,N
1711599136.0,286047000.4,N
1711599155.8,286047000.3,N
1711599175.7,286047002.3,N
1711599195.5,286047000.0,N
1711599215.3,286046999.8,N
1711599235.2,286047000.0,N
1711599255.0,286046999.7,N
1711599255.9,286046999.7,N
1711599275.7,286047001.8,N
1711599295.6,286047001.5,N
1711599315.4,286047002.8,N
1711599335.3,286047002.4,N
1711599355.1,286047002.6,N
1711599356.0,286047002.6,N
1711599375.8,286047002.0,N
1711599395.7,286047001.6,N
1711599415.5,286047002.4,N
1711599435.3,286047002.4,N
1711599455.2,286047002.1,N
1711599475.0,286047002.8,N
1711599475.9,286047002.8,N
1711599495.8,286047002.4,N
1711599515.6,286047000.3,N
1711599535.4,286047000.4,N
1711599555.3,286046998.2,N
1711599575.1,286046998.6,N
1711599595.9,286047000.8,N
1711599615.7,286047000.7,N
1711599635.5,286046998.8,N
1711599655.4,286046998.6,N
1711599675.2,286046998.1,N
1711599695.0,286047000.2,N
1711599695.9,286047000.2,N
1711599715.8,286046999.9,N
1711599735.6,286047000.9,N
1711599755.5,286047000.9,N
1711599775.3,286046998.3,N
1711599795.1,286047000.5,N
1711599815.9,286047002.8,N
1711599835.7,286047001.9,N
1711599855.6,286047002.2,N
1711599875.4,286047002.6,N
1711599895.2,286047002.0,N
1711599915.1,286047004.4,N
1711599916.0,286047004.4,N
1711599935.8,286047001.9,N
1711599955.7,286047002.4,N
1711599975.5,286047000.2,N
1711599995.3,286046999.7,N
1711600015.2,286047000.8,N
1711600035.0,286047000.9,N
1711600035.9,286047000.9,N
1711600055.8,286047002.7,N
1711600075.6,286047002.5,N
1711600095.4,286047001.5,N
1711600115.3,286047002.4,N
1711600135.1,286047001.5,N
1711600155.8,286047001.8,N
1711600175.7,286047001.4,N
1711600195.5,286047002.0,N
1711600215.4,286047001.3,N
1711600235.2,286047001.7,N
1711600255.0,286047001.6,N
1711600255.9,286047001.6,N
1711600275.8,286047004.4,Y
1711600295.6,286047000.1,P
1711600315.4,286046999.9,N
1711600335.3,286047000.4,N
1711600355.1,286047000.0,N
1711600375.9,286047000.4,N
1711600395.7,286047002.4,Y
1711600415.5,286047000.4,P
1711600435.4,286046999.8,P
1711600455.2,286047002.2,P
1711600475.0,286047002.1,N
1711600476.0,286047002.1,N
1711600495.8,286047002.7,N
1711600515.6,286047002.2,N
1711600535.5,286047002.7,N
1711600555.3,286047002.4,N
1711600575.1,286047002.4,N
1711600595.9,286047002.1,N
1711600615.7,286047002.6,N
1711600635.6,286046999.8,N
1711600655.4,286047002.3,N
1711600675.2,286047002.3,N
1711600695.1,286047002.7,N
1711600696.0,286047002.7,N
1711600715.8,286047001.0,N
1711600735.7,286047001.1,N
1711600755.5,286047001.2,N
1711600775.3,286047000.9,N
1711600795.2,286047000.6,N
1711600815.0,286046998.1,N
1711600815.9,286046998.1,N
1711600835.8,286046998.8,N
1711600855.6,286046998.8,N
1711600875.4,286046998.9,N
1711600895.3,286046999.0,N
1711600915.1,286046999.2,N
1711600935.8,286046998.6,N
1711600955.7,286047000.9,N
1711600975.5,286046999.7,N
1711600995.4,286047002.6,N
1711601015.2,286046999.7,N
1711601035.0,286047000.1,N
1711601035.9,286047000.1,N
1711601055.8,286047000.4,N
1711601075.6,286047000.4,N
1711601095.5,286047000.8,N
1711601115.3,286046998.1,N
1711601135.1,286047001.2,N
1711601155.9,286047001.2,N
1711601175.7,286046998.1,N
1711601195.6,286047000.0,N
1711601215.4,286047000.5,N
1711601235.2,286047000.0,N
1711601255.1,286047002.6,N
1711601256.0,286047002.6,N
1711601275.8,286047000.6,N
1711601295.7,286047000.8,N
1711601315.5,286047001.1,N
1711601335.4,286047000.1,N
1711601355.2,286047002.6,N
1711601375.0,286047002.7,N
1711601375.9,286047002.7,N
1711601395.8,286047001.9,N
1711601415.6,286047002.8,N
1711601435.4,286047000.9,N
1711601455.3,286047000.4,N
1711601475.1,286047002.6,N
1711601495.9,286047002.2,N
1711601515.7,286046999.8,N
1711601535.5,286047001.6,N
1711601555.4,286047002.3,N
1711601575.2,286046999.8,N
1711601595.0,286047000.0,N
1711601595.9,286047000.0,N
1711601615.8,286047000.3,N
1711601635.6,286047000.3,N
1711601655.5,286047000.2,N
1711601675.3,286047000.6,N
1711601695.1,286047000.3,N
1711601715.9,286047001.2,N
1711601735.7,286046998.8,N
1711601755.5,286046999.3,N
1711601775.4,286046999.2,N
1711601795.2,286046996.9,N
1711601815.1,286046997.6,N
1711601816.0,286046997.6,N
1711601835.8,286046997.0,N
1711601855.6,286046997.8,N
1711601875.5,286046998.0,N
1711601895.3,286046995.4,N
1711601915.2,286046997.5,N
1711601935.9,286046995.1,N
1711601955.7,286046995.7,N
1711601975.6,286046995.7,N
1711601995.4,286046995.1,N
